Weather History for Jefferson, NC

Change the Weather History Date:

Monday, August 26, 2013

  Actual Average Record
Temperature  
Mean Temperature 62 °F -  
Max Temperature 75 °F 79 °F 88 °F (1993)
Min Temperature 50 °F 55 °F 43 °F (1988)
Degree Days  
Heating Degree Days 2    
Growing Degree Days 12 (Base 50)    
Moisture  
Dew Point 54 °F    
Average Humidity 71    
Maximum Humidity 95    
Minimum Humidity 42    
Precipitation  
Precipitation 0.00 in - - ()
Sea Level Pressure  
Sea Level Pressure 30.34 in    
Wind  
Wind Speed 2 mph (NW)    
Max Wind Speed 9 mph    
Max Gust Speed -    
Visibility 8 miles    
Events Fog    
Averages and records for this station are not official NWS values.
T = Trace of Precipitation, MM = Missing Value Source: NWS Daily Summary

Daily Weather History Graph

Daily Weather History Graph

Search for Another Location

Airport:

Trip Planner

Search our weather history database for the weather conditions in past years. The results will help you decide how hot, cold, wet, or windy it might be!

Date:

Astronomy

Aug. 26, 2013 Rise Set
Actual Time 6:52 AM EDT 8:01 PM EDT
Civil Twilight 6:25 AM EDT 8:28 PM EDT
Nautical Twilight 5:54 AM EDT 8:59 PM EDT
Astronomical Twilight 5:20 AM EDT 9:32 PM EDT
Moon 11:23 PM EDT (8/26) 12:41 PM EDT (8/26)
Length of Visible Light 14h 02m
Length of Day
13h 09m
Waning Gibbous, 67% of the Moon is Illuminated
Aug 26
Waning Gibbous
Aug 28
Last Quarter
Sep 5
New
Sep 12
First Quarter
Sep 19
Full

Hourly Weather History & Observations

Time (EDT) Temp. Dew Point Humidity Pressure Visibility Wind Dir Wind Speed Gust Speed Precip Events Conditions
12:15 AM 57.0 °F 53.6 °F 88% 30.43 in 10.0 mi Calm Calm - N/A   Clear
12:35 AM 58.3 °F 52.9 °F 82% 30.43 in 10.0 mi Calm Calm - N/A   Mostly Cloudy
12:55 AM 55.9 °F 53.1 °F 90% 30.43 in 10.0 mi Calm Calm - N/A   Overcast
1:15 AM 55.4 °F 52.9 °F 91% 30.42 in 10.0 mi Calm Calm - N/A   Mostly Cloudy
1:35 AM 56.3 °F 53.2 °F 89% 30.42 in 10.0 mi Calm Calm - N/A   Scattered Clouds
1:55 AM 55.4 °F 53.1 °F 92% 30.42 in 10.0 mi South 4.6 mph - N/A   Clear
2:15 AM 54.7 °F 52.9 °F 94% 30.41 in 7.0 mi Calm Calm - N/A   Clear
2:35 AM 54.3 °F 52.5 °F 94% 30.41 in 4.0 mi Calm Calm - N/A   Scattered Clouds
2:55 AM 54.0 °F 52.3 °F 94% 30.40 in 2.5 mi Calm Calm - N/A   Mostly Cloudy
3:15 AM 53.8 °F 52.2 °F 94% 30.39 in 1.2 mi Calm Calm - N/A   Overcast
3:35 AM 53.6 °F 52.0 °F 94% 30.39 in 3.0 mi Calm Calm - N/A   Mostly Cloudy
3:55 AM 53.4 °F 51.8 °F 94% 30.38 in 7.0 mi Calm Calm - N/A   Scattered Clouds
4:15 AM 53.6 °F 52.0 °F 94% 30.38 in 10.0 mi Calm Calm - N/A   Clear
4:35 AM 53.1 °F 51.6 °F 95% 30.37 in 7.0 mi Calm Calm - N/A   Clear
4:55 AM 52.7 °F 51.1 °F 94% 30.37 in 7.0 mi Calm Calm - N/A   Scattered Clouds
5:15 AM 52.5 °F 50.9 °F 94% 30.37 in 5.0 mi Calm Calm - N/A   Scattered Clouds
5:35 AM 51.8 °F 50.2 °F 94% 30.36 in 7.0 mi Calm Calm - N/A   Scattered Clouds
5:55 AM 50.9 °F 49.1 °F 94% 30.37 in 0.5 mi Calm Calm - N/A Fog Fog
6:15 AM 51.3 °F 49.6 °F 94% 30.37 in 10.0 mi Calm Calm - N/A   Scattered Clouds
6:35 AM 50.9 °F 49.3 °F 94% 30.37 in 5.0 mi Calm Calm - N/A   Scattered Clouds
6:55 AM 51.3 °F 49.6 °F 94% 30.37 in 0.8 mi Calm Calm - N/A   Overcast
7:15 AM 51.6 °F 50.0 °F 94% 30.38 in 2.0 mi West 3.5 mph - N/A   Overcast
7:35 AM 50.5 °F 48.9 °F 94% 30.37 in 7.0 mi Calm Calm - N/A   Scattered Clouds
7:55 AM 50.2 °F 48.6 °F 94% 30.38 in 0.5 mi Calm Calm - N/A Fog Fog
8:15 AM 52.3 °F 50.7 °F 94% 30.38 in 0.5 mi Calm Calm - N/A Fog Fog
8:35 AM 55.2 °F 53.6 °F 94% 30.38 in 5.0 mi Calm Calm - N/A   Scattered Clouds
8:55 AM 58.1 °F 55.0 °F 90% 30.38 in 10.0 mi Calm Calm - N/A   Scattered Clouds
9:15 AM 59.7 °F 56.5 °F 89% 30.38 in 10.0 mi Calm Calm - N/A   Clear
9:35 AM 61.7 °F 57.7 °F 87% 30.38 in 10.0 mi Calm Calm - N/A   Clear
9:55 AM 65.5 °F 56.8 °F 74% 30.39 in 10.0 mi Calm Calm - N/A   Clear
10:15 AM 67.3 °F 54.5 °F 63% 30.39 in 10.0 mi NNW 6.9 mph - N/A   Clear
10:35 AM 68.0 °F 53.6 °F 60% 30.39 in 10.0 mi NNW 5.8 mph - N/A   Clear
10:55 AM 68.5 °F 54.0 °F 60% 30.38 in 10.0 mi NNW 4.6 mph - N/A   Clear
11:15 AM 69.3 °F 53.8 °F 58% 30.38 in 10.0 mi NW 5.8 mph - N/A   Mostly Cloudy
11:35 AM 68.9 °F 54.3 °F 60% 30.38 in 10.0 mi NNW 8.1 mph - N/A   Overcast
11:55 AM 69.1 °F 55.6 °F 62% 30.38 in 10.0 mi North 3.5 mph - N/A   Overcast
12:15 PM 70.3 °F 54.7 °F 58% 30.37 in 10.0 mi NW 4.6 mph - N/A   Overcast
12:35 PM 71.6 °F 54.5 °F 55% 30.36 in 10.0 mi WNW 4.6 mph - N/A   Mostly Cloudy
12:55 PM 71.6 °F 54.3 °F 54% 30.36 in 10.0 mi NNW 8.1 mph - N/A   Mostly Cloudy
1:15 PM 73.2 °F 55.4 °F 54% 30.36 in 10.0 mi NNW 5.8 mph - N/A   Mostly Cloudy
1:35 PM 72.9 °F 52.9 °F 49% 30.34 in 10.0 mi NNW 6.9 mph - N/A   Scattered Clouds
1:55 PM 73.8 °F 54.0 °F 50% 30.34 in 10.0 mi NNE 4.6 mph - N/A   Scattered Clouds
2:15 PM 73.4 °F 52.7 °F 48% 30.34 in 10.0 mi NNW 3.5 mph - N/A   Scattered Clouds
2:35 PM 73.4 °F 52.2 °F 47% 30.33 in 10.0 mi NNW 5.8 mph - N/A   Scattered Clouds
2:55 PM 72.7 °F 54.1 °F 52% 30.32 in 10.0 mi North 3.5 mph - N/A   Mostly Cloudy
3:15 PM 73.4 °F 55.2 °F 53% 30.32 in 10.0 mi NNW 3.5 mph - N/A   Overcast
3:35 PM 73.4 °F 53.2 °F 49% 30.32 in 10.0 mi North 3.5 mph - N/A   Overcast
3:55 PM 73.6 °F 53.4 °F 49% 30.31 in 10.0 mi NNW 4.6 mph - N/A   Mostly Cloudy
4:15 PM 74.5 °F 53.8 °F 48% 30.30 in 10.0 mi NNW 6.9 mph - N/A   Scattered Clouds
4:35 PM 74.7 °F 52.5 °F 46% 30.29 in 10.0 mi NW 3.5 mph - N/A   Clear
4:55 PM 75.7 °F 51.3 °F 42% 30.28 in 10.0 mi WNW 4.6 mph - N/A   Scattered Clouds
5:15 PM 75.9 °F 51.6 °F 43% 30.28 in 10.0 mi NW 3.5 mph - N/A   Mostly Cloudy
5:35 PM 75.4 °F 52.9 °F 45% 30.28 in 10.0 mi NW 4.6 mph - N/A   Mostly Cloudy
5:55 PM 74.7 °F 52.2 °F 45% 30.27 in 10.0 mi NNW 4.6 mph - N/A   Scattered Clouds
6:15 PM 74.1 °F 53.1 °F 48% 30.27 in 10.0 mi Calm Calm - N/A   Clear
6:35 PM 73.9 °F 53.6 °F 49% 30.26 in 10.0 mi WNW 3.5 mph - N/A   Scattered Clouds
6:55 PM 73.9 °F 54.3 °F 50% 30.25 in 10.0 mi NW 3.5 mph - N/A   Mostly Cloudy
7:15 PM 73.0 °F 54.5 °F 52% 30.26 in 10.0 mi NW 3.5 mph - N/A   Mostly Cloudy
7:35 PM 72.3 °F 54.9 °F 54% 30.26 in 10.0 mi NW 5.8 mph - N/A   Scattered Clouds
7:55 PM 70.7 °F 55.8 °F 59% 30.26 in 10.0 mi WNW 5.8 mph - N/A   Scattered Clouds
8:15 PM 70.3 °F 56.5 °F 61% 30.26 in 10.0 mi WNW 5.8 mph - N/A   Clear
8:35 PM 69.8 °F 56.7 °F 63% 30.26 in 10.0 mi WNW 4.6 mph - N/A   Clear
8:55 PM 68.9 °F 57.2 °F 66% 30.26 in 10.0 mi WNW 5.8 mph - N/A   Clear
9:15 PM 69.1 °F 57.2 °F 66% 30.26 in 10.0 mi WNW 8.1 mph - N/A   Clear
9:35 PM 69.1 °F 57.2 °F 66% 30.26 in 10.0 mi WNW 9.2 mph - N/A   Clear
9:55 PM 68.7 °F 57.4 °F 67% 30.26 in 10.0 mi NW 4.6 mph - N/A   Clear
10:15 PM 67.3 °F 57.4 °F 70% 30.26 in 10.0 mi NW 3.5 mph - N/A   Clear
10:35 PM 66.9 °F 57.6 °F 72% 30.27 in 10.0 mi NW 3.5 mph - N/A   Clear
10:55 PM 67.6 °F 57.7 °F 71% 30.27 in 10.0 mi WNW 4.6 mph - N/A   Clear
11:15 PM 65.8 °F 57.7 °F 75% 30.27 in 10.0 mi NW 4.6 mph - N/A   Clear
11:35 PM 65.8 °F 57.7 °F 75% 30.27 in 10.0 mi Calm Calm - N/A   Clear
11:55 PM 65.7 °F 57.9 °F 76% 30.26 in 10.0 mi Calm Calm - N/A   Clear